User: anonymous   Login
Location: Unspecified
(0.0000°N, 0.0000°E)
Time: 05:48:11
(UTC+02:00)
Language:

Cosmos 1538 Rocket - Orbit

View from above orbital plane
View from above orbital plane
View from above satellite
View from above satellite

Ground track
Ground track

The orbit data is extracted from the following two-line orbital elements,

1 14760U 84019B   16183.84192432  .00000003  00000-0  10190-4 0  9990
2 14760  74.0437  44.5194 0028049 348.5237  95.5942 14.35783100693304
Epoch (UTC): 01 July 2016 20:12:22
Eccentricity: 0.0028049
inclination: 74.0437°
perigee height: 752 km
apogee height: 792 km
right ascension of ascending node: 44.5194°
argument of perigee: 348.5237°
revolutions per day: 14.35783100
mean anomaly at epoch: 95.5942°
orbit number at epoch: 69330

The dashed part of the orbit path shows where the satellite is in the earth's shadow,  

DLR